Regional Weather Roundup
Issued by NWS Grand Forks, ND

Home | Current Version | Previous Version | Graphics & Text | Print | Product List | Glossary On
Versions: 1 2 3 4 5 6 7 8 9 10 11 12 13 14 15 16 17 18 19 20 21 22 23 24 25 26 27 28 29 30 31 32 33 34 35 36 37 38 39 40 41 42 43 44 45 46 47 48 49 50
158
ASUS43 KFGF 240310
RWRFGF
PRAIRIE TO PINES  WEATHER ROUNDUP
NATIONAL WEATHER SERVICE EASTERN NORTH DAKOTA/GRAND FORKS ND
1000 PM CDT FRI JUN 23 2017

 **SATELLITE DATA USED TO AUGMENT SKY COVER AT AUTOMATED STATIONS**
 *****  WEATHER ACROSS EASTERN NORTH DAKOTA  *****

CITY           SKY/WX    TMP DP  RH WIND       PRES   REMARKS
GRAND FORKS    MOCLDY    57  41  55 NW12      29.97R
GRAND FRKS AFB CLOUDY    56  40  54 NW13      29.98S
DEVILS LAKE    MOCLDY    53  39  59 NW9       30.03R
FARGO          CLOUDY    60  42  51 NW13      29.99R
WAHPETON ARPT  FAIR      55  36  47 NW13      30.00R
$$

 ***** WEATHER ACROSS CENTRAL AND WESTERN NORTH DAKOTA  *****

CITY           SKY/WX    TMP DP  RH WIND       PRES   REMARKS
BISMARCK       FAIR      60  35  39 N8        30.11R
MINOT          FAIR      54  35  48 NW8       30.06S
JAMESTOWN      FAIR      55  38  52 NW14      30.05R
MINOT AFB      FAIR      55  36  50 N5        30.05S
GARRISON         N/A     51  36  56 NW9       30.09S
WILLISTON      MOCLDY    59  38  45 N7        30.13S
DICKINSON      FAIR      54  30  40 N5        30.13R
HETTINGER      FAIR      53  30  41 NW5       30.17R
$$

 *****  OTHER AIRPORT OBSERVATIONS IN OUR AREA  *****

CITY           SKY/WX    TMP DP  RH WIND       PRES   REMARKS
WALHALLA       NOT AVBL
GRAFTON AIRPOR CLOUDY    57  41  54 NW14G21   29.99R
VALLEY CITY AR FAIR      55  37  50 NW10G20   30.05R
CANDO          NOT AVBL
CAVALIER APRT  CLOUDY    55  41  58 W9        29.96R
GWINNER        MOCLDY    59  41  51 NW12G18   30.04R
ROLLA            N/A     50  41  71 NW9       30.02S
 ***** THE ABOVE OBSERVATIONS ARE NON NWS ARE NOT QUALITY
       CONTROLLED AND MAY MIS-REPORT RAIN FOR SNOW...
$$

  *****  WEATHER ACROSS NORTHERN MINNESOTA  *****

CITY           SKY/WX    TMP DP  RH WIND       PRES   REMARKS
FLAG ISLAND    CLOUDY    54  48  82 W10       29.86S
WARROAD        CLOUDY    54  48  82 W7        29.91R
ROSEAU           N/A     55  48  76 W5        29.92R
HALLOCK        CLOUDY    55  43  62 NW10      29.94S
THF RVR FALLS  FAIR      54  40  59 NW12      29.96R
BAUDETTE       CLOUDY    54  49  83 NW10      29.88R
WASKISH        CLOUDY    55  48  76 NW12G18   29.91R
CROOKSTON      CLOUDY    55  43  62 NW10      29.98R
STEPHEN NDAWN    N/A     55  41  58 W8          N/A
GREENBUSH NDAW   N/A     55  45  67 W7          N/A
$$
  *****  WEATHER ACROSS CENTRAL AND WEST MINNESOTA  *****

CITY           SKY/WX    TMP DP  RH WIND       PRES   REMARKS
FOSSTON        CLOUDY    54  39  58 NW12G18   29.96R
BEMIDJI        FAIR      49  46  87 NW6       29.93R
PARK RAPIDS    FAIR      55  44  66 NW8       29.93R
ELBOW LAKE     FAIR      58  43  57 NW17      29.99R
WADENA         CLOUDY    57  43  58 NW8       29.94R
DETROIT LAKES  MOCLDY    55  41  58 NW12      29.98R
MOORHEAD       MOCLDY    57  41  54 NW9       29.99R
FERGUS FALLS   MOCLDY    57  43  58 NW15      29.97R
MORRIS MN      FAIR      61  43  51 NW14      29.98R
STAPLES        FAIR      54  45  71 CALM      29.94R
$$
  *****  WEATHER ELSEWHERE ACROSS MINNESOTA  *****

CITY           SKY/WX    TMP DP  RH WIND       PRES   REMARKS
DULUTH         CLOUDY    55  54  96 NW13G20   29.84R
INTRNTL FALLS  CLOUDY    54  50  86 W12G20    29.85R
ELY            CLOUDY    55  54  94 W8G17     29.82R
CLOQUET        CLOUDY    55  50  82 NW12      29.87R
WHEATON        FAIR      59  39  47 NW10      30.02R
BRAINERD       FAIR      58  47  66 NW7       29.93R
HIBBING        CLOUDY    54  48  80 NW15G21   29.86R
ALEXANDRIA     FAIR      58  46  64 W9        29.97R
SAINT CLOUD    CLOUDY    61  48  62 NW9       29.93R
MINNEAPOLIS    MOCLDY    65  49  56 NW13G22   29.91R
$$

  *****  WEATHER ACROSS SOUTH DAKOTA  *****

CITY           SKY/WX    TMP DP  RH WIND       PRES   REMARKS
SIOUX FALLS    FAIR      56  44  64 NW8       30.06R
BROOKINGS      FAIR      54  43  66 NW7       30.06R
WATERTOWN      FAIR      58  41  53 NW14      30.04R
HURON          FAIR      53  44  71 NW6       30.08R
SISSETON         N/A     57  41  55 NW9       30.01R
ABERDEEN       FAIR      56  40  55 NW9       30.07R
MITCHELL       FAIR      59  40  49 NW6       30.09R
PIERRE         FAIR      57  39  51 N9        30.11R
MOBRIDGE       FAIR      58  36  43 N8        30.09R
RAPID CITY     FAIR      55  27  34 N10       30.21R
$$

  *****  SOME WEATHER IN NEARBY STATES *****

CITY           SKY/WX    TMP DP  RH WIND       PRES   REMARKS
GLASGOW MT     FAIR      62  28  27 NW13      30.17F
GREAT FALLS MT CLOUDY    61  38  42 NE5       30.27S
CHEYENNE WY    CLOUDY    58  43  57 S6        30.31R
SCOTTSBLUFF NE FAIR      61  30  31 NE8       30.24R
OMAHA NE       FAIR      62  50  64 NW7       30.06R
DES MOINES IA  MOCLDY    68  50  52 NW7       30.00R
DAVENPORT IA   FAIR      64  56  75 NW10      29.91R
CHICAGO IL     FAIR      71  55  56 NW14      29.81R
EAU CLAIRE WI  FAIR      61  52  72 NW10      29.86R
LA CROSSE WI   CLOUDY    69  56  62 NW14      29.86R
$$

  *****  SOME NATIONAL WEATHER *****

CITY           SKY/WX    TMP DP  RH WIND       PRES   REMARKS
LA GUARDIA NY  MOCLDY    82  75  79 SW12      29.62F
RALEIGH NC     FAIR      83  72  69 SW14      29.87R
ATLANTA GA     MOCLDY    73  72  96 SW7       30.00R
NEW ORLEANS LA MOCLDY    81  78  91 S7        29.96R
OKLAHOMA CITY  MOCLDY    78  54  43 NE17      30.02R
ALBUQUERQUE NM FAIR      81  53  37 E22G31    30.07R
SALT LAKE CITY FAIR      77  35  21 W8        30.11R
LOS ANGELES CA CLOUDY    63  61  93 W10       29.91S
BOISE ID       FAIR      79  28  15 NW9       30.10S
SEATTLE WA     FAIR      77  48  35 N10       30.14F
$$

*** WEATHER ACROSS MANITOBA...SASKATCHEWAN AND ONTARIO ***
                ***ONTARIO***

CITY           SKY/WX    TMP DP  RH WIND       PRES   REMARKS
GERALDTON      PTCLDY    54  50  87 NW3       29.70R
THUNDER BAY    MOCLDY    55  52  88 W3        29.72R
SIOUX LOOKOUT  LGT RAIN  55  54  94 NW8       29.76R
TORONTO        MOCLDY    70  61  73 NW14      29.59R
BIG TROUT LK   CLEAR     52  46  82 N10G18    29.81R
PICKLE LAKE    NOT AVBL
DRYDEN         LGT RAIN  54  52  94 W8        29.79R
KENORA         LGT RAIN  54  50  87 NW9       29.84R
$$
                *** MANITOBA***

CITY           SKY/WX    TMP DP  RH WIND       PRES   REMARKS
BRANDON        PTCLDY    48  41  76 NW12      29.99R
DAUPHIN        CLOUDY    52  46  82 NW8       29.98R
ISLAND LAKE    PTCLDY    52  41  66 N9G18     29.91R
PILOT MOUND      N/A     48  41  76 NW9         N/A
THE PAS        LGT RAIN  48  46  93 N13G20    30.06R FOG
THOMPSON       MOCLDY    52  37  58 NE7       30.01R
WINNIPEG       MOCLDY    54  48  82 W10       29.92R
LYNN LAKE      CLOUDY    50  37  62 N5        30.09S
CHURCHILL      PTCLDY    48  36  61 CALM      30.02S
GILLAM         PTCLDY    52  39  62 NE7       30.01R
$$
                ***SASKATCHEWAN***

CITY           SKY/WX    TMP DP  RH WIND       PRES   REMARKS
ESTEVAN        LGT RAIN  50  41  71 N21G31    30.11R
KINDERSLEY     PTCLDY    57  41  54 N7        30.18R
LLOYDMINSTER   PTCLDY    61  41  48 NW5       30.17S
PRINCE ALBERT  PTCLDY    46  39  76 E6        30.20S
REGINA         MOCLDY    48  37  66 N8        30.14R
YORKTON        MOCLDY    48  41  76 NW15      30.06R
N. BATTLEFORD  CLEAR     57  39  51 NE6       30.18R
LA RONGE       MOCLDY    50  46  87 VRB2      30.15R
SASKATOON      PTCLDY    52  41  66 E9        30.18R
SWIFT CURRENT  MOCLDY    55  43  62 NW9       30.16S
$$
NOTE: THESE ARE AUTOMATED STATIONS WITH LIMITED QUALITY CONTROL
      "FAIR" INDICATES FEW OR NO CLOUDS BELOW 12,000 FEET WITH NO
      SIGNIFICANT WEATHER AND/OR OBSTRUCTIONS TO VISIBILITY.
      SKY/WX - SKY CONDITION AND SIGNIFICANT WEATHER.
      TMP - AIR TEMPERATURE.    DP   - DEWPOINT TEMPERATURE.
      RH  - RELATIVE HUMIDITY.  PRES - PRESSURE.
      HX  - HEAT INDEX.         WCI  - WIND CHILL INDEX.
$




USA.gov is the U.S. government's official web portal to all federal, state and local government web resources and services.